Flag for Russia Weather past 2 weeks in Nizhny Novgorod, Russia

Now
59 °F

Partly sunny.


Feels Like: 60 °F
Forecast: 51 / 69 °F
Wind: 3 mph from West

Location: Nizhny Novgorod/Strigino

Current Time: Aug 4, 2015 at 8:29:50 AM

Latest Report: Aug 4, 2015 at 8:00 AM


Visibility: N/A

Pressure: 30.12 "Hg

Humidity: 77%

Dew point: 52 °F

Location of Nizhny NovgorodLocation

Historic Weather in Nizhny Novgorod — Graph

°F

Nizhny Novgorod temperature yesterday

Maximum temperature yesterday: 73 °F (at 2:30 PM)
Minimum temperature yesterday: 50 °F (at 5:00 AM)
Average temperature yesterday: 64 °F

Past Weeks' High & Low Weather Summary

 TemperatureHumidityPressure
High86 °F (Jul 28, 1:30 PM)100% (Jul 20, 9:00 PM)30.21 "Hg (Jul 20, 9:00 PM)
Low46 °F (Jul 26, 3:30 AM)39% (Jul 31, 3:30 PM)29.36 "Hg (Jul 21, 1:30 AM)
Average65 °F76%29.82 "Hg
* Reported Jul 20 7:00 AM — Aug 4 7:30 AM, Nizhny Novgorod, Weather by CustomWeather, © 2015

Note: Actual official high and low records may vary slightly from our data, if they occured in-between our weather recording intervals... More about our weather records

Advertising

Nizhny Novgorod weather history for previous 24 hours

 ConditionsComfort  
Time TempWeatherWind HumidityBarometerVisibility
7:30 AM
Tue, Aug 4
57 °FPartly sunny.6 mph82%30.12 "HgN/A
7:00 AM55 °FPartly sunny.8 mph88%30.12 "HgN/A
6:00 AM54 °FPartly sunny.6 mph94%30.12 "HgN/A
5:30 AM55 °FPartly sunny.6 mph88%30.12 "HgN/A
5:00 AM54 °FPassing clouds.3 mph94%30.09 "HgN/A
4:30 AM54 °FPassing clouds.3 mph88%30.09 "HgN/A
4:00 AM54 °FPassing clouds.6 mph94%30.09 "HgN/A
3:30 AM54 °FClear.6 mph94%30.09 "Hg10 mi
3:00 AM55 °FClear.3 mph88%30.09 "Hg10 mi
2:30 AM55 °FClear.6 mph88%30.09 "Hg10 mi
2:00 AM57 °FPassing clouds.6 mph82%30.07 "HgN/A
1:30 AM59 °FPassing clouds.6 mph77%30.07 "HgN/A
1:00 AM61 °FPassing clouds.3 mph77%30.07 "HgN/A
12:30 AM61 °FPassing clouds.10 mph77%30.07 "HgN/A
12:00 AM64 °FLight rain. Passing clouds.13 mph68%30.07 "HgN/A
11:30 PM
Mon, Aug 3
64 °FPassing clouds.3 mph64%30.04 "HgN/A
11:00 PM64 °FClear.3 mph64%30.04 "Hg10 mi
10:30 PM64 °FPassing clouds.3 mph64%30.04 "HgN/A
10:00 PM64 °FClear.3 mph64%30.07 "Hg10 mi
9:30 PM66 °FClear.3 mph60%30.07 "Hg10 mi
9:00 PM66 °FSunny.3 mph60%30.07 "Hg10 mi
8:30 PM66 °FSunny.3 mph60%30.07 "Hg10 mi
8:00 PM66 °FSunny.1 mph60%30.07 "Hg10 mi
7:30 PM66 °FSunny.3 mph60%30.07 "Hg10 mi
7:00 PM66 °FSunny.3 mph60%30.07 "Hg10 mi
6:30 PM68 °FSunny.1 mph56%30.09 "Hg10 mi
6:00 PM70 °FPassing clouds.3 mph50%30.09 "HgN/A
5:30 PM70 °FPassing clouds.3 mph50%30.09 "HgN/A
5:00 PM72 °FScattered clouds.6 mph47%30.09 "HgN/A
4:30 PM70 °FScattered clouds.6 mph46%30.12 "HgN/A
4:00 PM70 °FScattered clouds.6 mph50%30.12 "HgN/A
3:30 PM72 °FScattered clouds.6 mph44%30.12 "HgN/A
3:00 PM72 °FPartly sunny.8 mph47%30.12 "HgN/A
2:30 PM73 °FPartly sunny.6 mph41%30.12 "HgN/A
2:00 PM72 °FPartly sunny.8 mph44%30.15 "HgN/A
1:30 PM72 °FPartly sunny.8 mph44%30.15 "HgN/A
1:00 PM72 °FPartly sunny.10 mph44%30.15 "HgN/A
12:30 PM72 °FPartly sunny.8 mph44%30.15 "HgN/A
12:00 PM70 °FPartly sunny.6 mph46%30.18 "HgN/A
11:30 AM70 °FPartly sunny.8 mph46%30.18 "HgN/A
11:00 AM70 °FPartly sunny.8 mph46%30.18 "HgN/A
10:30 AM68 °FScattered clouds.8 mph53%30.18 "HgN/A
10:00 AM66 °FPassing clouds.6 mph60%30.18 "HgN/A
9:30 AM66 °FPassing clouds.8 mph60%30.18 "HgN/A
9:00 AM66 °FPassing clouds.3 mph64%30.18 "HgN/A
8:30 AM64 °FSunny.6 mph68%30.21 "Hg10 mi
8:00 AM64 °FPassing clouds.3 mph68%30.21 "HgN/A
Weather by CustomWeather, © 2015

See weather overviewHow to use our weather pages